Location: Champignolles
(47.0543°N, 4.5663°E)
Time: 00:11:25
(UTC+00:00)

Envisat - Pass Details

Date: 15 March 2021
Orbit: 764 x 766 km, 98.1° (Epoch: 11 April)

Event Time Altitude Azimuth Distance (km) Brightness Sun altitude
Rises 04:12:31 0° 27° (NNE) 3,242 6.9 -18.0°
Reaches altitude 10° 04:15:29 10° 44° (NE) 2,310 6.4 -17.5°
Maximum altitude 04:19:07 20° 90° (E) 1,739 5.8 -16.9°
Drops below altitude 10° 04:22:44 10° 136° (SE) 2,297 5.8 -16.3°
Sets 04:25:39 0° 154° (SSE) 3,217 6.4 -15.9°
